Date String (YYYY-MM-DD hh:mm:ss) UTC,Instrument flags,Ambient pressure (hPa),Sample flow (lpm),Bypass flow (lpm),Sample temperature (°C),Ambient temperature (°C),ASC tube jacket temperature (°C),LED temperature (°C),Box temperature (°C),Sample RH (%),Span deviation,Mass concentration (μg/m³),Mass concentration (μg/m³),Mass concentration (μg/m³)
DateTimeUTC,F1_M11,P_M11,Q1_M11,Q2_M11,T1_M11,T2_M11,T3_M11,T4_M11,T5_M11,U1_M11,ZSPAN_M11,X0_M11,X2_M11,X1_M11
2022-02-08 08:00:00,,0826.1,5.01,0.00,23.6,22.9,00.0,32.6,25.3,07.5,0000.0,0000.88,0000.50,0000.31
2022-02-08 08:01:00,,0826.1,4.99,0.00,23.6,22.9,00.0,32.6,25.4,07.1,0000.0,0000.83,0000.48,0000.31
2022-02-08 08:02:00,,0826.1,5.02,0.00,23.6,22.9,00.0,32.6,25.4,06.8,0000.0,0000.86,0000.48,0000.31
2022-02-08 08:03:00,,0826.0,4.99,0.00,23.6,22.9,00.0,32.6,25.4,06.6,0000.0,0000.79,0000.48,0000.32
2022-02-08 08:04:00,,0826.0,5.02,0.00,23.6,22.8,00.0,32.6,25.3,06.7,0000.0,0000.74,0000.48,0000.32
2022-02-08 08:05:00,,0826.0,5.00,0.00,23.6,22.8,00.0,32.6,25.2,06.6,0000.0,0000.72,0000.46,0000.33
2022-02-08 08:06:00,,0826.0,5.00,0.00,23.6,22.8,00.0,32.6,25.2,06.5,0000.0,0000.70,0000.46,0000.33
2022-02-08 08:07:00,,0825.9,4.99,0.00,23.6,22.8,00.0,32.6,25.2,06.8,0000.0,0000.82,0000.53,0000.33
2022-02-08 08:08:00,,0825.8,4.99,0.00,23.6,22.8,00.0,32.6,25.3,06.8,0000.0,0000.88,0000.56,0000.33
2022-02-08 08:09:00,,0825.9,5.01,0.00,23.6,22.7,00.0,32.6,25.2,07.1,0000.0,0000.89,0000.56,0000.32
2022-02-08 08:10:00,,0825.9,5.00,0.00,23.6,22.7,00.0,32.6,25.2,07.2,0000.0,0000.88,0000.56,0000.33
2022-02-08 08:11:00,,0825.8,4.99,0.00,23.6,22.7,00.0,32.6,25.2,06.8,0000.0,0001.05,0000.62,0000.33
2022-02-08 08:12:00,,0825.8,5.00,0.00,23.6,22.7,00.0,32.6,25.2,06.7,0000.0,0001.12,0000.65,0000.34
2022-02-08 08:13:00,,0825.8,4.99,0.00,23.6,22.8,00.0,32.6,25.3,06.3,0000.0,0001.15,0000.63,0000.34
2022-02-08 08:14:00,,0825.8,5.01,0.00,23.5,22.7,00.0,32.6,25.2,06.4,0000.0,0001.26,0000.61,0000.34
2022-02-08 08:15:00,,0825.8,5.01,0.00,23.5,22.7,00.0,32.6,25.2,06.3,0000.0,0001.23,0000.60,0000.33
2022-02-08 08:16:00,,0825.9,4.99,0.00,23.5,22.7,00.0,32.6,25.1,06.6,0000.0,0001.27,0000.61,0000.33
2022-02-08 08:17:00,,0826.0,5.00,0.00,23.5,22.6,00.0,32.6,25.1,06.6,0000.0,0002.14,0000.64,0000.33
2022-02-08 08:18:00,,0826.0,5.01,0.00,23.5,22.6,00.0,32.5,25.1,06.7,0000.0,0002.22,0000.56,0000.33
2022-02-08 08:19:00,,0826.0,4.99,0.00,23.5,22.7,00.0,32.5,25.2,06.5,0000.0,0002.28,0000.59,0000.33
2022-02-08 08:20:00,,0826.0,5.01,0.00,23.5,22.7,00.0,32.5,25.2,06.5,0000.0,0002.42,0000.60,0000.34
2022-02-08 08:21:00,,0826.0,5.00,0.00,23.5,22.7,00.0,32.5,25.2,06.5,0000.0,0002.46,0000.61,0000.33
2022-02-08 08:22:00,,0825.8,5.00,0.00,23.5,22.7,00.0,32.5,25.2,06.6,0000.0,0002.34,0000.56,0000.34
2022-02-08 08:23:00,,0825.8,5.01,0.00,23.5,22.7,00.0,32.5,25.2,06.4,0000.0,0003.21,0000.56,0000.33
2022-02-08 08:24:00,,0825.8,4.99,0.00,23.5,22.7,00.0,32.5,25.2,06.5,0000.0,0003.60,0000.57,0000.33
2022-02-08 08:25:00,,0825.7,5.01,0.00,23.5,22.7,00.0,32.5,25.1,06.5,0000.0,0003.63,0000.62,0000.33
2022-02-08 08:26:00,,0825.9,4.98,0.00,23.5,22.6,00.0,32.5,25.0,06.2,0000.0,0003.86,0000.67,0000.34
2022-02-08 08:27:00,,0825.8,5.01,0.00,23.5,22.6,00.0,32.5,25.1,06.3,0000.0,0003.86,0000.67,0000.35
2022-02-08 08:28:00,,0825.8,4.99,0.00,23.5,22.6,00.0,32.5,25.1,05.9,0000.0,0002.86,0000.64,0000.35
2022-02-08 08:29:00,,0825.9,5.00,0.00,23.5,22.6,00.0,32.5,25.1,05.7,0000.0,0002.71,0000.63,0000.35
2022-02-08 08:30:00,,0826.0,5.01,0.00,23.5,22.5,00.0,32.5,25.1,05.8,0000.0,0002.62,0000.59,0000.35
2022-02-08 08:31:00,,0825.9,5.00,0.00,23.5,22.6,00.0,32.5,25.1,06.0,0000.0,0002.47,0000.57,0000.35
2022-02-08 08:32:00,,0825.9,5.00,0.00,23.5,22.6,00.0,32.5,25.2,05.4,0000.0,0002.40,0000.55,0000.35
2022-02-08 08:33:00,,0825.9,5.02,0.00,23.5,22.6,00.0,32.5,25.2,05.9,0000.0,0002.37,0000.53,0000.35
2022-02-08 08:34:00,,0825.9,5.00,0.00,23.5,22.6,00.0,32.5,25.1,06.0,0000.0,0001.58,0000.56,0000.35
2022-02-08 08:35:00,,0825.8,4.99,0.00,23.5,22.7,00.0,32.5,25.2,05.9,0000.0,0001.15,0000.56,0000.35
2022-02-08 08:36:00,,0825.9,5.01,0.00,23.5,22.7,00.0,32.5,25.1,05.8,0000.0,0000.99,0000.51,0000.34
2022-02-08 08:37:00,,0825.9,4.99,0.00,23.5,22.7,00.0,32.5,25.1,06.1,0000.0,0000.85,0000.47,0000.34
2022-02-08 08:38:00,,0825.9,5.01,0.00,23.5,22.7,00.0,32.5,25.2,05.9,0000.0,0001.06,0000.47,0000.34
2022-02-08 08:39:00,,0825.8,5.00,0.00,23.5,22.7,00.0,32.5,25.2,06.0,0000.0,0001.23,0000.51,0000.34
2022-02-08 08:40:00,,0825.7,4.99,0.00,23.5,22.7,00.0,32.5,25.2,05.6,0000.0,0001.37,0000.53,0000.35
2022-02-08 08:41:00,,0825.8,5.00,0.00,23.5,22.7,00.0,32.5,25.3,05.7,0000.0,0001.44,0000.55,0000.35
2022-02-08 08:42:00,,0825.9,5.01,0.00,23.5,22.7,00.0,32.5,25.2,05.8,0000.0,0001.53,0000.57,0000.36
2022-02-08 08:43:00,,0825.8,4.99,0.00,23.5,22.7,00.0,32.5,25.2,05.6,0000.0,0001.59,0000.60,0000.36
2022-02-08 08:44:00,,0825.9,5.01,0.00,23.6,22.7,00.0,32.5,25.2,05.6,0000.0,0001.68,0000.63,0000.37
2022-02-08 08:45:00,,0825.9,5.00,0.00,23.6,22.7,00.0,32.5,25.3,05.5,0000.0,0001.94,0000.61,0000.37
2022-02-08 08:46:00,,0826.0,5.00,0.00,23.6,22.7,00.0,32.5,25.3,05.5,0000.0,0001.97,0000.61,0000.37
2022-02-08 08:47:00,,0826.1,5.01,0.00,23.6,22.7,00.0,32.5,25.3,05.6,0000.0,0001.98,0000.63,0000.38
2022-02-08 08:48:00,,0826.1,4.99,0.00,23.6,22.8,00.0,32.5,25.3,05.7,0000.0,0001.99,0000.65,0000.39
2022-02-08 08:49:00,,0826.0,5.02,0.00,23.5,22.8,00.0,32.5,25.3,05.7,0000.0,0001.85,0000.66,0000.40
2022-02-08 08:50:00,,0826.0,5.00,0.00,23.5,22.7,00.0,32.5,25.2,05.7,0000.0,0001.70,0000.62,0000.40
2022-02-08 08:51:00,,0826.1,4.99,0.00,23.4,22.7,00.0,32.5,25.2,05.6,0000.0,0001.61,0000.63,0000.40
2022-02-08 08:52:00,,0826.1,5.02,0.00,23.4,22.6,00.0,32.5,25.2,05.8,0000.0,0001.60,0000.64,0000.40
2022-02-08 08:53:00,,0826.2,5.00,0.00,23.4,22.6,00.0,32.5,25.2,05.5,0000.0,0001.61,0000.65,0000.40
2022-02-08 08:54:00,,0826.2,4.99,0.00,23.4,22.6,00.0,32.5,25.2,05.5,0000.0,0001.75,0000.67,0000.40
2022-02-08 08:55:00,,0826.1,5.01,0.00,23.4,22.7,00.0,32.5,25.2,05.6,0000.0,0001.75,0000.67,0000.39
2022-02-08 08:56:00,,0826.2,4.99,0.00,23.4,22.6,00.0,32.5,25.2,05.7,0000.0,0001.46,0000.67,0000.39
2022-02-08 08:57:00,,0826.2,5.00,0.00,23.4,22.6,00.0,32.5,25.2,05.6,0000.0,0001.43,0000.68,0000.40
2022-02-08 08:58:00,,0826.3,5.00,0.00,23.4,22.6,00.0,32.4,25.2,05.7,0000.0,0001.39,0000.67,0000.40
2022-02-08 08:59:00,,0826.4,5.01,0.00,23.4,22.7,00.0,32.4,25.2,05.6,0000.0,0001.30,0000.65,0000.40
